User: anonymous   Login
Location: Dallas(GA)
(33.9240°N, 84.8410°W)
Time: 22:24:19
(UTC-04:00)
Language:

N. Korean satellite - Orbit

View from above orbital plane
View from above orbital plane
View from above satellite
View from above satellite

Ground track
Ground track

The orbit data is extracted from the following two-line orbital elements,

1 39026U 12072A   20299.43770237  .00002310  00000-0  82976-4 0  9999
2 39026  97.2314 292.4701 0038079 139.4055 221.0036 15.28970646437160
Epoch (UTC): 25 October 2020 10:30:17
Eccentricity: 0.0038079
inclination: 97.2314°
perigee height: 453 km
apogee height: 505 km
right ascension of ascending node: 292.4701°
argument of perigee: 139.4055°
revolutions per day: 15.28970646
mean anomaly at epoch: 221.0036°
orbit number at epoch: 43716

The dashed part of the orbit path shows where the satellite is in the earth's shadow,  

DLR